Location: Kalamazoo
(42.2920°N, 85.5870°W)
Time: 11:39:56
(UTC-05:00)

Daily predictions for brighter satellites

Satellite Brightness Start Highest point End
(mag) Time Altitude Azimuth Time Altitude Azimuth Time Altitude Azimuth
CSL-04 Debris 4.4 17:33:30 10° SE 17:38:37 47° ENE 17:43:47 10° N
SMAP 3.5 17:34:38 10° SE 17:38:58 40° ENE 17:43:19 10° N
Meteor 2-4 Rocket 3.9 17:40:30 10° SSE 17:45:38 45° E 17:50:42 10° NNE
Cosmos 2278 3.8 17:46:27 10° S 17:52:01 60° ESE 17:57:38 10° NNE
Cosmos 2369 3.8 17:46:39 10° S 17:52:14 63° ESE 17:57:53 10° NNE
CSL-04 Rocket 3.7 17:47:01 10° SSE 17:52:24 69° ENE 17:57:54 10° N
Meteor 1-28 Rocket 3.7 17:51:24 10° NNE 17:54:59 40° E 17:58:33 10° S
ALOS 3.6 17:52:00 10° ESE 17:55:12 19° ENE 17:58:24 10° NNE
Ariane Rocket 3.0 17:50:22 10° SSE 17:55:20 62° ENE 18:00:20 10° N
Cosmos 1975 4.2 17:51:51 10° NNW 17:55:43 44° W 17:59:36 10° SSW
Cosmos 1455 Rocket 3.0 17:51:40 10° N 17:56:07 86° E 18:00:28 10° S
Cosmos 2266 Rocket 4.1 17:52:00 10° N 17:57:58 53° ENE 18:04:00 10° SSE
USA 238 DEB 4.0 17:51:50 10° NW 17:58:58 79° WSW 18:06:09 10° SSE
USA 238 4.0 17:51:56 10° NW 17:59:04 80° WSW 18:06:15 10° SSE
USA 116 4.1 17:57:49 10° NE 18:00:33 27° E 18:03:15 10° SSE
Cosmos 1544 Rocket 3.7 17:56:18 10° N 18:00:40 78° W 18:04:58 10° S
Cosmos 724 4.2 17:58:15 10° NNW 18:04:03 83° ENE 18:09:53 10° SSE
Cosmos 1697 Rocket 3.0 17:59:26 10° S 18:04:48 46° ESE 18:10:10 10° NE
RESURS DK-1 4.2 18:03:41 10° SE 18:05:54 14° ESE 18:07:11 13° E
Meteor 1-13 Rocket 4.3 18:00:36 10° S 18:06:13 90° N 18:11:59 10° N
IRAS Rocket 4.2 18:01:21 10° SSE 18:06:50 90° ENE 18:12:21 10° NNW
YAOGAN 1 3.0 18:04:12 10° SE 18:08:14 40° ENE 18:12:18 10° N
Cosmos 1743 3.8 18:04:48 10° NNW 18:08:33 49° W 18:12:18 10° SSW
Cosmos 1125 Rocket 3.5 18:04:01 10° SSW 18:09:19 83° ESE 18:14:38 10° NNE
Cosmos 1269 Rocket 4.0 18:05:55 10° NNW 18:11:13 67° ENE 18:16:28 10° SSE
MINOTAUR IV R/B 4.5 18:07:52 10° NNW 18:12:23 80° ENE 18:16:51 10° SSE
Cosmos 372 Rocket 4.0 18:11:06 10° SSW 18:16:18 90° WNW 18:21:30 10° NNE
Cosmos 1048 Rocket 4.1 18:11:17 10° NNW 18:16:42 90° WSW 18:22:04 10° SSE
ERS-2 3.1 18:15:33 10° SE 18:18:38 26° ENE 18:21:44 10° N
Cosmos 2082 3.9 18:14:58 10° NNW 18:20:35 75° WSW 18:26:12 10° SSE
SJ 16-02 1.6 18:19:15 10° SSW 18:23:37 71° WNW 18:28:03 10° NNE
Meteor 1-15 Rocket 4.3 18:17:59 10° N 18:23:52 61° ENE 18:29:40 10° SSE
Landsat 4 4.1 18:20:59 11° NNE 18:24:24 43° E 18:28:02 10° S
PSLV R/B 3.2 18:21:38 10° W 18:24:49 71° S 18:26:40 22° ESE
STPSAT 2 (USA 217) 4.5 18:20:38 10° NNW 18:25:10 76° ENE 18:29:41 10° SSE
COSMO-SKYMED 1 3.0 18:21:04 10° NNE 18:25:11 40° E 18:29:17 10° S
NOSS 3-2 (A) 4.1 18:18:52 10° NW 18:26:27 89° SW 18:34:43 10° SSE
CORIOLIS 4.3 18:22:00 10° SSE 18:27:25 82° WSW 18:32:50 10° NNW
CZ-4 R/B 1.3 18:23:34 10° SSE 18:27:27 86° WSW 18:31:28 10° NNW
Cosmos 2227 Rocket 3.3 18:25:13 10° NW 18:30:39 49° WSW 18:36:03 10° S
Abrixas rocket 3.4 18:30:13 10° WNW 18:33:03 27° N 18:33:51 24° NNE
NOSS 3-2 (C) 4.0 18:27:54 10° NW 18:35:29 82° NE 18:43:45 10° SE
ATLAS 3B R/B 3.8 18:30:15 10° NW 18:36:30 45° WSW 18:42:37 10° S
Meteor 2-11 Rocket 4.5 18:32:22 10° S 18:38:22 59° E 18:44:24 10° NNE
ATLAS 2AS CENTAUR R/B 4.1 18:35:02 10° WSW 18:42:20 39° NW 18:49:51 10° NNE
Cosmos 1025 Rocket 2.9 18:40:17 10° S 18:44:31 68° E 18:48:17 13° NNE
Gbstr 26 Del rocket 4.5 18:37:32 10° WSW 18:45:39 77° NNW 18:50:31 23° NE
Cosmos 1980 Rocket 2.2 18:41:08 10° S 18:46:41 59° ESE 18:50:26 21° NE
Cosmos 2084 3.2 18:44:39 10° SW 18:48:50 87° NW 18:50:39 31° NE
USA 215 3.6 18:43:05 10° SE 18:49:35 68° SW 18:56:06 10° NW
Okean 2 3.2 18:46:07 10° S 18:50:12 81° E 18:53:32 15° N
Cosmos 1656 4.4 18:46:34 10° SW 18:51:57 50° WNW 18:57:18 10° NNE
Cosmos 1066 Rocket 4.4 18:47:42 10° SSE 18:52:53 43° E 18:55:35 25° NE
SKYMED 3 4.5 18:51:24 13° NNE 18:55:19 88° ESE 18:59:39 10° SSW
Cosmos 1553 Rocket 4.3 18:49:37 10° SSE 18:55:39 45° E 19:01:00 13° NNE
Cosmos 2297 Rocket 3.9 18:51:40 10° NW 18:56:45 35° WSW 19:01:48 10° SSW
CZ-2C R/B 4.4 18:52:58 10° N 18:57:34 55° WNW 19:02:13 10° SSW
SL-24 R/B - RUBIN 2 4.2 18:51:38 10° SSW 18:57:52 86° ESE 19:01:12 26° NE
Okean 1-7 Rocket 3.4 18:54:44 10° S 18:59:06 74° E 19:01:59 22° NNE
DELTA 2 R/B (1) 4.2 18:54:04 10° W 18:59:28 53° SSW 19:02:55 22° SE
NOSS 3-4 (A) 3.6 18:56:59 10° SW 19:03:11 74° NW 19:07:29 22° NNE
NOSS 3-4 (C) 3.6 18:57:04 10° SW 19:03:17 74° NW 19:07:33 23° NNE
NOAA 12 3.9 18:58:46 10° SSE 19:04:01 79° ENE 19:09:17 10° N
Cosmos 1745 Rocket 4.2 19:02:38 10° N 19:08:36 46° ENE 19:14:34 10° SSE
MOS 1 4.5 19:04:01 10° S 19:09:41 74° WSW 19:15:23 10° NNW
NOSS 2-2 (D) 3.4 19:06:33 10° SSW 19:10:21 57° ESE 19:10:21 57° ESE
SKYMED 2 4.1 19:09:37 14° N 19:13:17 59° WNW 19:17:33 10° SSW
DMSP B5D1-3 4.4 19:12:04 25° NNE 19:15:10 80° ESE 19:20:16 10° S
CENTAUR R/B 3.0 19:07:23 10° NNW 19:15:16 69° NE 19:22:17 16° SE
DNEPR-1 R/B 4.2 19:10:29 10° NW 19:15:41 84° WSW 19:22:04 10° SSE
Cosmos 1606 Rocket 3.3 19:12:32 10° N 19:16:54 82° E 19:21:13 10° S
Cosmos 2227 4.1 19:13:52 10° NNW 19:19:39 75° ENE 19:24:25 15° SSE
Cosmos 2344 4.0 19:14:33 10° S 19:21:26 37° ESE 19:22:05 37° E
NOSS 2-2 (E) 3.3 19:21:44 10° SW 19:25:38 85° WNW 19:25:38 85° WNW
FENGYUN 3A 4.0 19:20:26 10° S 19:25:46 66° WSW 19:31:07 10° NNW
Lacrosse 5 rocket 2.9 19:23:13 10° SSW 19:25:21 25° S 19:25:21 25° S
Cosmos 2263 Rocket 3.4 19:25:09 10° N 19:27:55 26° N 19:27:55 26° N
SL-16 R/B 2.8 19:25:28 10° S 19:29:37 40° SE 19:29:37 40° SE
BREEZE-M DEB (TANK) 4.0 19:27:50 10° NW 19:30:38 44° N 19:30:38 44° N
ALOS 3.1 19:27:45 10° S 19:32:15 49° W 19:36:48 10° NNW
NOSS 2-2 (C) 3.6 19:28:59 10° SW 19:32:19 65° SW 19:32:19 65° SW
Cosmos 2322 Rocket 2.8 19:29:06 10° S 19:32:59 39° SSE 19:32:59 39° SSE
SL-8 R/B 4.0 19:30:59 10° SW 19:35:14 58° S 19:35:14 58° S
SPOT 3 Rocket 4.4 19:33:36 10° S 19:38:35 48° W 19:43:35 10° NNW
RESURS DK-1 3.2 19:39:30 10° SW 19:43:08 48° W 19:43:08 48° W
Cosmos 1892 Rocket 4.0 19:40:21 10° SSW 19:44:10 59° SW 19:44:10 59° SW
Thor Agena Rocket 4.2 19:49:31 46° S 19:49:31 46° S 19:53:11 10° S
Cosmos 2251 Rocket 4.0 19:43:35 10° NNW 19:48:45 57° WSW 19:53:52 10° S
Cosmos 1697 Rocket 4.4 19:44:08 10° WSW 19:48:56 28° NW 19:52:23 16° N
S3M 4.5 20:02:31 10° SSW 20:08:30 56° WNW 20:11:13 32° NNW
Cosmos 1980 Rocket 4.1 20:26:39 10° WSW 20:31:07 23° NW 20:32:15 22° NW
